M I D A S
Marine Information and Data Acquisition System
Tripno 2133 of the Zeeleeuw from 2011-02-24 08:26:42 to 2011-02-24 17:00:55
Back to CruiseResearch ActivitiesStationsMapUnderway DataData graphs

EquipmentUnitsComments
TimeDGPSUTC
LatitudeDGPSDM.mWGS84
LongitudeDGPSDM.mWGS84
SpeedMeteo Stationm/sRelative wind speed
DirectionMeteo StationdegRelative wind direction
TemperatureMeteo Stationdeg CelciusAir temperature
PressureMeteo StationPaAtmospheric pressure
HumidityMeteo Station%Relative humidity
Missing or incorrect values are displayed as -999
Metereological data collected by the RV Zeeleeuw from 2011-02-24 06:56:12 to 2011-02-24 17:01:52
                                                                                    Next 1000 lines
Time Latitude Longitude Speed Direction Temperature Pressure Humidity
2011-02-24 06:56:22 51°13.664 2°55.96 4.2 52 8.2 101920 60
2011-02-24 06:56:27 51°13.664 2°55.96 2.9 23 8.2 101920 59
2011-02-24 06:56:32 51°13.664 2°55.96 3.5 57 8.2 101920 59
2011-02-24 06:56:37 51°13.664 2°55.96 4.1 45 8.2 101920 60
2011-02-24 06:56:42 51°13.664 2°55.96 3.7 53 8.2 101920 60
2011-02-24 06:56:47 51°13.664 2°55.96 3.6 21 8.2 101930 59
2011-02-24 06:56:51 51°13.664 2°55.96 4.5 50 8.2 101930 59
2011-02-24 06:56:57 51°13.664 2°55.96 4.8 25 8.2 101920 61
2011-02-24 06:57:02 51°13.664 2°55.96 3.8 53 8.2 101920 61
2011-02-24 06:57:07 51°13.664 2°55.96 4.4 28 8.2 101920 60
2011-02-24 06:57:12 51°13.664 2°55.96 2.3 43 8.2 101920 60
2011-02-24 06:57:16 51°13.664 2°55.96 2.8 45 8.2 101920 60
2011-02-24 06:57:22 51°13.664 2°55.96 1.1 44 8.2 101920 60
2011-02-24 06:57:27 51°13.664 2°55.96 3.4 36 8.2 101920 61
2011-02-24 06:57:32 51°13.664 2°55.96 3.8 57 8.2 101920 61
2011-02-24 06:57:37 51°13.664 2°55.96 1.3 22 8.2 101920 61
2011-02-24 06:57:42 51°13.663 2°55.96 1.4 53 8.2 101920 61
2011-02-24 06:57:47 51°13.663 2°55.96 3.8 25 8.2 101920 61
2011-02-24 06:57:52 51°13.664 2°55.96 4.4 50 8.2 101920 61
2011-02-24 06:57:57 51°13.664 2°55.96 4.1 41 8.2 101920 60
2011-02-24 06:58:02 51°13.664 2°55.96 4.5 49 8.2 101920 60
2011-02-24 06:58:07 51°13.664 2°55.96 3.9 19 8.2 101920 59
2011-02-24 06:58:12 51°13.664 2°55.96 2.9 40 8.2 101920 59
2011-02-24 06:58:17 51°13.664 2°55.96 4.3 25 8.2 101930 59
2011-02-24 06:58:22 51°13.664 2°55.96 1.2 51 8.2 101930 59
2011-02-24 06:58:27 51°13.664 2°55.96 4 42 8.2 101920 59
2011-02-24 06:58:32 51°13.663 2°55.96 4.4 45 8.2 101920 59
2011-02-24 06:58:37 51°13.663 2°55.961 3.2 19 8.2 101930 59
2011-02-24 06:58:42 51°13.663 2°55.96 3.7 53 8.2 101930 59
2011-02-24 06:58:47 51°13.663 2°55.961 4.9 23 8.2 101920 61
2011-02-24 06:58:51 51°13.662 2°55.961 3.8 51 8.2 101920 61
2011-02-24 06:58:57 51°13.662 2°55.961 3.3 28 8.2 101920 59
2011-02-24 06:59:02 51°13.662 2°55.961 0.3 57 8.2 101920 59
2011-02-24 06:59:07 51°13.662 2°55.961 4.6 23 8.2 101920 60
2011-02-24 06:59:12 51°13.662 2°55.961 4.2 56 8.2 101920 60
2011-02-24 06:59:17 51°13.662 2°55.961 3.3 23 8.2 101930 59
2011-02-24 06:59:22 51°13.662 2°55.961 2.2 54 8.2 101930 59
2011-02-24 06:59:27 51°13.662 2°55.961 3.1 27 8.2 101930 59
2011-02-24 06:59:32 51°13.662 2°55.961 1.9 57 8.2 101930 59
2011-02-24 06:59:37 51°13.662 2°55.961 2.2 19 8.2 101930 60
2011-02-24 06:59:42 51°13.662 2°55.961 2.4 55 8.2 101930 60
2011-02-24 06:59:47 51°13.661 2°55.961 1.3 20 8.2 101930 60
2011-02-24 06:59:52 51°13.662 2°55.961 2.1 52 8.2 101930 60
2011-02-24 06:59:57 51°13.662 2°55.961 1.9 41 8.2 101930 60
2011-02-24 07:00:02 51°13.662 2°55.961 3.8 51 8.2 101930 60
2011-02-24 07:00:07 51°13.662 2°55.961 4.3 21 8.2 101930 60
2011-02-24 07:00:12 51°13.662 2°55.961 3.7 52 8.2 101930 60
2011-02-24 07:00:17 51°13.662 2°55.961 4 25 8.2 101930 60
2011-02-24 07:00:22 51°13.662 2°55.962 4.2 52 8.2 101930 60
2011-02-24 07:00:27 51°13.662 2°55.962 4.3 25 8.2 101930 61
2011-02-24 07:00:32 51°13.662 2°55.962 3.6 51 8.2 101930 61
2011-02-24 07:00:37 51°13.662 2°55.962 5 22 8.2 101930 61
2011-02-24 07:00:41 51°13.662 2°55.962 3.7 51 8.2 101930 61
2011-02-24 07:00:47 51°13.662 2°55.962 4.1 22 8.2 101930 61
2011-02-24 07:00:52 51°13.662 2°55.962 5.1 51 8.2 101930 61
2011-02-24 07:00:57 51°13.662 2°55.961 4.7 23 8.2 101930 59
2011-02-24 07:01:01 51°13.662 2°55.961 4 52 8.2 101930 59
2011-02-24 07:01:07 51°13.662 2°55.962 5.1 21 8.2 101930 59
2011-02-24 07:01:12 51°13.662 2°55.962 2.7 56 8.2 101930 59
2011-02-24 07:01:17 51°13.662 2°55.962 4.7 24 8.2 101940 59
2011-02-24 07:01:22 51°13.662 2°55.962 3.9 43 8.2 101940 59
2011-02-24 07:01:27 51°13.662 2°55.962 2.3 19 8.2 101930 61
2011-02-24 07:01:32 51°13.662 2°55.961 1 56 8.2 101930 61
2011-02-24 07:01:37 51°13.662 2°55.962 0.2 21 8.2 101940 60
2011-02-24 07:01:42 51°13.662 2°55.962 0.1 49 8.2 101940 60
2011-02-24 07:01:47 51°13.662 2°55.962 0.5 44 8.2 101930 59
2011-02-24 07:01:52 51°13.662 2°55.962 0.7 57 8.2 101930 59
2011-02-24 07:01:57 51°13.662 2°55.962 2.9 19 8.2 101930 60
2011-02-24 07:02:02 51°13.662 2°55.962 5 56 8.2 101930 60
2011-02-24 07:02:07 51°13.662 2°55.962 4.3 41 8.2 101930 60
2011-02-24 07:02:12 51°13.662 2°55.961 1.6 52 8.2 101930 60
2011-02-24 07:02:17 51°13.662 2°55.961 2.3 22 8.2 101940 61
2011-02-24 07:02:22 51°13.662 2°55.961 1.9 56 8.2 101940 61
2011-02-24 07:02:27 51°13.662 2°55.961 0.3 24 8.2 101940 60
2011-02-24 07:02:32 51°13.662 2°55.961 1.7 49 8.2 101940 60
2011-02-24 07:02:37 51°13.662 2°55.961 0.4 27 8.2 101940 59
2011-02-24 07:02:42 51°13.662 2°55.961 0.2 52 8.2 101940 59
2011-02-24 07:02:47 51°13.662 2°55.961 1.3 27 8.2 101940 61
2011-02-24 07:02:52 51°13.662 2°55.961 4 55 8.2 101940 61
2011-02-24 07:02:57 51°13.662 2°55.961 4 27 8.2 101940 60
2011-02-24 07:03:02 51°13.663 2°55.961 0.4 55 8.2 101940 60
2011-02-24 07:03:07 51°13.663 2°55.961 0.1 24 8.2 101940 59
2011-02-24 07:03:12 51°13.663 2°55.961 2.1 34 8.2 101940 59
2011-02-24 07:03:17 51°13.663 2°55.961 2.1 37 8.2 101940 59
2011-02-24 07:03:22 51°13.663 2°55.961 2.8 51 8.2 101940 59
2011-02-24 07:03:27 51°13.663 2°55.961 4.4 22 8.2 101940 59
2011-02-24 07:03:32 51°13.663 2°55.961 3.5 42 8.2 101940 59
2011-02-24 07:03:36 51°13.663 2°55.961 2.6 26 8.2 101940 60
2011-02-24 07:03:41 51°13.663 2°55.961 2.9 58 8.2 101940 60
2011-02-24 07:03:47 51°13.662 2°55.961 2.6 43 8.2 101940 61
2011-02-24 07:03:52 51°13.663 2°55.961 4.3 53 8.2 101940 61
2011-02-24 07:03:57 51°13.663 2°55.961 4.2 40 8.2 101940 59
2011-02-24 07:04:02 51°13.663 2°55.96 3.9 55 8.2 101940 59
2011-02-24 07:04:07 51°13.663 2°55.961 0.6 26 8.2 101940 61
2011-02-24 07:04:12 51°13.663 2°55.961 1.2 56 8.2 101940 61
2011-02-24 07:04:17 51°13.663 2°55.961 1.3 19 8.2 101940 59
2011-02-24 07:04:22 51°13.663 2°55.961 4.2 53 8.2 101940 59
2011-02-24 07:04:27 51°13.662 2°55.961 3.2 21 8.2 101940 59
2011-02-24 07:04:32 51°13.662 2°55.961 2.6 44 8.2 101940 59
2011-02-24 07:04:37 51°13.662 2°55.961 2.6 27 8.2 101940 59
2011-02-24 07:04:42 51°13.663 2°55.961 3.7 56 8.2 101940 59
2011-02-24 07:04:47 51°13.663 2°55.961 3.7 28 8.2 101940 60
2011-02-24 07:04:52 51°13.663 2°55.961 3.1 50 8.2 101940 60
2011-02-24 07:04:57 51°13.663 2°55.961 3.9 43 8.2 101940 60
2011-02-24 07:05:02 51°13.663 2°55.961 2.9 37 8.2 101940 60
2011-02-24 07:05:07 51°13.662 2°55.961 3.5 43 8.2 101940 59
2011-02-24 07:05:12 51°13.663 2°55.961 3.9 39 8.2 101940 59
2011-02-24 07:05:17 51°13.663 2°55.961 4.4 43 8.1 101940 61
2011-02-24 07:05:22 51°13.663 2°55.961 2.3 42 8.1 101940 61
2011-02-24 07:05:27 51°13.663 2°55.961 1.6 26 8.1 101940 59
2011-02-24 07:05:32 51°13.663 2°55.961 4.2 55 8.1 101940 59
2011-02-24 07:05:37 51°13.663 2°55.961 3.1 26 8.1 101940 60
2011-02-24 07:05:41 51°13.663 2°55.961 3.6 50 8.1 101940 60
2011-02-24 07:05:47 51°13.663 2°55.961 3.8 27 8.1 101940 59
2011-02-24 07:05:52 51°13.663 2°55.961 3.3 42 8.1 101940 59
2011-02-24 07:05:57 51°13.663 2°55.962 4.3 41 8.1 101940 59
2011-02-24 07:06:02 51°13.663 2°55.962 3.2 53 8.1 101940 59
2011-02-24 07:06:07 51°13.663 2°55.961 3.8 44 8.1 101940 59
2011-02-24 07:06:12 51°13.663 2°55.961 3.7 38 8.1 101940 59
2011-02-24 07:06:17 51°13.663 2°55.961 3 37 8.1 101940 60
2011-02-24 07:06:22 51°13.663 2°55.961 2.6 56 8.1 101940 60
2011-02-24 07:06:27 51°13.663 2°55.961 2.6 44 8.1 101940 61
2011-02-24 07:06:32 51°13.663 2°55.961 1.5 38 8.1 101940 61
2011-02-24 07:06:37 51°13.663 2°55.961 2.4 28 8.1 101940 60
2011-02-24 07:06:42 51°13.663 2°55.961 4.1 57 8.1 101940 60
2011-02-24 07:06:47 51°13.663 2°55.961 4.6 28 8.1 101940 59
2011-02-24 07:06:52 51°13.663 2°55.961 2.9 51 8.1 101940 59
2011-02-24 07:06:57 51°13.663 2°55.961 3 20 8.1 101940 59
2011-02-24 07:07:02 51°13.663 2°55.961 4.1 45 8.1 101940 59
2011-02-24 07:07:07 51°13.662 2°55.961 3.8 44 8.1 101940 58
2011-02-24 07:07:12 51°13.662 2°55.961 3.4 45 8.1 101940 58
2011-02-24 07:07:17 51°13.662 2°55.961 3.2 42 8.1 101940 59
2011-02-24 07:07:22 51°13.663 2°55.961 0.6 53 8.1 101940 59
2011-02-24 07:07:27 51°13.663 2°55.961 0.5 41 8.1 101940 59
2011-02-24 07:07:32 51°13.663 2°55.961 5.2 45 8.1 101940 59
2011-02-24 07:07:37 51°13.663 2°55.961 3.6 37 8.2 101940 61
2011-02-24 07:07:42 51°13.663 2°55.961 3.9 55 8.2 101940 61
2011-02-24 07:07:47 51°13.663 2°55.961 4 41 8.1 101940 61
2011-02-24 07:07:52 51°13.663 2°55.961 2 41 8.1 101940 61
2011-02-24 07:07:56 51°13.663 2°55.961 2.5 44 8.1 101940 59
2011-02-24 07:08:01 51°13.663 2°55.961 1.7 54 8.1 101940 59
2011-02-24 07:08:06 51°13.663 2°55.961 3.1 18 8.1 101940 59
2011-02-24 07:08:12 51°13.663 2°55.961 4.3 44 8.1 101940 59
2011-02-24 07:08:17 51°13.663 2°55.961 4.2 24 8.1 101940 58
2011-02-24 07:08:22 51°13.663 2°55.961 3 52 8.1 101940 58
2011-02-24 07:08:27 51°13.662 2°55.961 2.6 28 8.1 101940 59
2011-02-24 07:08:32 51°13.662 2°55.961 1.2 51 8.1 101940 59
2011-02-24 07:08:37 51°13.663 2°55.961 2.3 44 8.1 101940 59
2011-02-24 07:08:42 51°13.663 2°55.961 3.5 40 8.1 101940 59
2011-02-24 07:08:46 51°13.663 2°55.961 2.2 26 8.1 101940 61
2011-02-24 07:08:51 51°13.663 2°55.961 0.9 52 8.1 101940 61
2011-02-24 07:08:57 51°13.662 2°55.961 0.9 23 8.1 101940 59
2011-02-24 07:09:02 51°13.662 2°55.961 1.2 54 8.1 101940 59
2011-02-24 07:09:07 51°13.662 2°55.961 1 24 8.1 101940 60
2011-02-24 07:09:12 51°13.662 2°55.961 0.8 56 8.1 101940 60
2011-02-24 07:09:17 51°13.662 2°55.961 1.8 44 8.1 101940 60
2011-02-24 07:09:22 51°13.662 2°55.962 3.5 37 8.1 101940 60
2011-02-24 07:09:27 51°13.662 2°55.961 2.3 39 8.1 101940 59
2011-02-24 07:09:32 51°13.662 2°55.962 1.2 34 8.1 101940 59
2011-02-24 07:09:37 51°13.662 2°55.962 1.5 41 8.1 101940 59
2011-02-24 07:09:42 51°13.662 2°55.961 1.3 51 8.1 101940 59
2011-02-24 07:09:47 51°13.662 2°55.962 1.5 22 8.1 101940 58
2011-02-24 07:09:52 51°13.662 2°55.961 0.3 51 8.1 101940 58
2011-02-24 07:09:57 51°13.662 2°55.961 0.4 22 8.1 101940 59
2011-02-24 07:10:02 51°13.662 2°55.961 2.1 43 8.1 101940 59
2011-02-24 07:10:07 51°13.662 2°55.962 1.1 21 8.1 101940 59
2011-02-24 07:10:12 51°13.662 2°55.962 1 53 8.1 101940 59
2011-02-24 07:10:17 51°13.662 2°55.961 0.4 28 8.1 101940 59
2011-02-24 07:10:22 51°13.662 2°55.962 2.3 51 8.1 101940 59
2011-02-24 07:10:26 51°13.662 2°55.962 1.1 26 8.1 101940 60
2011-02-24 07:10:31 51°13.662 2°55.962 0.1 53 8.1 101940 60
2011-02-24 07:10:36 51°13.662 2°55.962 0.1 23 8.1 101940 59
2011-02-24 07:10:41 51°13.662 2°55.961 0.9 41 8.1 101940 59
2011-02-24 07:10:47 51°13.662 2°55.961 2.5 45 8.1 101940 60
2011-02-24 07:10:52 51°13.662 2°55.962 0.8 44 8.1 101940 60
2011-02-24 07:10:57 51°13.662 2°55.962 0.9 42 8.1 101950 60
2011-02-24 07:11:02 51°13.662 2°55.961 1.2 42 8.1 101950 60
2011-02-24 07:11:07 51°13.662 2°55.961 0.2 43 8.1 101950 61
2011-02-24 07:11:12 51°13.662 2°55.962 1.2 54 8.1 101950 61
2011-02-24 07:11:17 51°13.662 2°55.962 1.7 22 8.1 101940 59
2011-02-24 07:11:22 51°13.662 2°55.962 2.3 56 8.1 101940 59
2011-02-24 07:11:27 51°13.662 2°55.962 1.9 44 8 101950 59
2011-02-24 07:11:32 51°13.662 2°55.962 1 43 8 101950 59
2011-02-24 07:11:37 51°13.662 2°55.962 0.4 41 8 101940 59
2011-02-24 07:11:42 51°13.662 2°55.962 0.1 39 8 101940 59
2011-02-24 07:11:47 51°13.662 2°55.962 1.4 43 8 101940 60
2011-02-24 07:11:52 51°13.662 2°55.962 0.2 40 8 101940 60
2011-02-24 07:11:57 51°13.662 2°55.961 0.9 22 8 101940 59
2011-02-24 07:12:02 51°13.662 2°55.961 1.5 38 8 101940 59
2011-02-24 07:12:07 51°13.662 2°55.961 1.7 41 8 101950 59
2011-02-24 07:12:12 51°13.662 2°55.961 2.3 36 8 101950 59
2011-02-24 07:12:17 51°13.662 2°55.962 2.8 42 8 101950 59
2011-02-24 07:12:22 51°13.661 2°55.962 4 44 8 101950 59
2011-02-24 07:12:27 51°13.662 2°55.961 2.6 44 8 101950 58
2011-02-24 07:12:32 51°13.662 2°55.961 2.1 55 8 101950 58
2011-02-24 07:12:37 51°13.662 2°55.961 2.2 24 8 101940 60
2011-02-24 07:12:42 51°13.662 2°55.961 4.2 45 8 101940 60
2011-02-24 07:12:47 51°13.662 2°55.961 3.9 39 8 101940 60
2011-02-24 07:12:52 51°13.662 2°55.961 3.6 56 8 101940 60
2011-02-24 07:12:57 51°13.662 2°55.961 3.9 20 8.1 101940 58
2011-02-24 07:13:01 51°13.662 2°55.961 5.1 43 8.1 101940 58
2011-02-24 07:13:07 51°13.662 2°55.961 4.1 19 8.1 101950 60
2011-02-24 07:13:11 51°13.662 2°55.961 3.2 43 8.1 101950 60
2011-02-24 07:13:16 51°13.662 2°55.961 3.7 44 8.1 101940 60
2011-02-24 07:13:22 51°13.662 2°55.961 3.6 51 8.1 101940 60
2011-02-24 07:13:27 51°13.662 2°55.961 2.6 21 8.1 101950 59
2011-02-24 07:13:32 51°13.662 2°55.961 0.5 55 8.1 101950 59
2011-02-24 07:13:37 51°13.662 2°55.961 0.1 24 8.1 101950 58
2011-02-24 07:13:42 51°13.662 2°55.961 3.8 44 8.1 101950 58
2011-02-24 07:13:47 51°13.662 2°55.961 3.8 24 8.1 101950 58
2011-02-24 07:13:52 51°13.662 2°55.961 4.2 42 8.1 101950 58
2011-02-24 07:13:57 51°13.662 2°55.961 3.9 43 8.1 101950 59
2011-02-24 07:14:02 51°13.662 2°55.961 2.3 59 8.1 101950 59
2011-02-24 07:14:07 51°13.662 2°55.961 3.2 42 8.1 101950 58
2011-02-24 07:14:12 51°13.662 2°55.961 1 42 8.1 101950 58
2011-02-24 07:14:17 51°13.663 2°55.961 2.7 28 8.1 101950 58
2011-02-24 07:14:22 51°13.663 2°55.961 1.5 41 8.1 101950 58
2011-02-24 07:14:26 51°13.663 2°55.961 2.9 44 8.1 101940 60
2011-02-24 07:14:31 51°13.663 2°55.962 3.8 41 8.1 101940 60
2011-02-24 07:14:37 51°13.663 2°55.962 3.2 22 8.1 101950 59
2011-02-24 07:14:42 51°13.662 2°55.962 4.6 58 8.1 101950 59
2011-02-24 07:14:47 51°13.662 2°55.962 4.2 43 8.1 101950 59
2011-02-24 07:14:52 51°13.663 2°55.962 4.7 54 8.1 101950 59
2011-02-24 07:14:57 51°13.662 2°55.962 3.5 39 8.1 101950 61
2011-02-24 07:15:02 51°13.662 2°55.962 1.7 38 8.1 101950 61
2011-02-24 07:15:07 51°13.663 2°55.962 1.2 42 8.1 101950 58
2011-02-24 07:15:12 51°13.663 2°55.962 3.3 57 8.1 101950 58
2011-02-24 07:15:17 51°13.662 2°55.962 1.6 22 8.1 101950 61
2011-02-24 07:15:22 51°13.662 2°55.962 2.6 37 8.1 101950 61
2011-02-24 07:15:27 51°13.662 2°55.962 2.8 44 8.1 101950 60
2011-02-24 07:15:32 51°13.662 2°55.962 2.1 51 8.1 101950 60
2011-02-24 07:15:37 51°13.662 2°55.962 2.3 27 8.1 101950 60
2011-02-24 07:15:42 51°13.662 2°55.962 3.5 51 8.1 101950 60
2011-02-24 07:15:47 51°13.662 2°55.962 2.3 21 8.1 101950 59
2011-02-24 07:15:51 51°13.662 2°55.962 0.9 50 8.1 101950 59
2011-02-24 07:15:57 51°13.662 2°55.962 1.8 21 8.1 101950 59
2011-02-24 07:16:02 51°13.662 2°55.962 2.2 57 8.1 101950 59
2011-02-24 07:16:07 51°13.662 2°55.962 3.9 22 8.1 101950 60
2011-02-24 07:16:12 51°13.662 2°55.962 4.6 39 8.1 101950 60
2011-02-24 07:16:17 51°13.662 2°55.962 3.5 40 8.1 101950 58
2011-02-24 07:16:22 51°13.662 2°55.962 0.3 51 8.1 101950 58
2011-02-24 07:16:27 51°13.662 2°55.962 0.2 41 8.1 101950 60
2011-02-24 07:16:32 51°13.661 2°55.962 0.1 54 8.1 101950 60
2011-02-24 07:16:37 51°13.662 2°55.962 -999 26 8.1 101950 58
2011-02-24 07:16:42 51°13.662 2°55.962 1.7 40 8.1 101950 58
2011-02-24 07:16:47 51°13.662 2°55.962 2.1 41 8.1 101950 59
2011-02-24 07:16:51 51°13.661 2°55.962 0.1 39 8.1 101950 59
2011-02-24 07:16:57 51°13.661 2°55.962 0.8 41 8.1 101950 60
2011-02-24 07:17:02 51°13.661 2°55.962 1.4 41 8.1 101950 60
2011-02-24 07:17:07 51°13.661 2°55.962 1.5 44 8.1 101950 59
2011-02-24 07:17:12 51°13.662 2°55.962 0.6 38 8.1 101950 59
2011-02-24 07:17:17 51°13.661 2°55.962 0.1 44 8.1 101950 59
2011-02-24 07:17:22 51°13.661 2°55.961 0.1 43 8.1 101950 59
2011-02-24 07:17:27 51°13.661 2°55.961 -999 42 8.1 101950 60
2011-02-24 07:17:32 51°13.662 2°55.961 1.6 40 8.1 101950 60
2011-02-24 07:17:37 51°13.662 2°55.962 3.1 39 8.1 101950 60
2011-02-24 07:17:41 51°13.661 2°55.961 1.4 51 8.1 101950 60
2011-02-24 07:17:47 51°13.661 2°55.962 1.7 28 8.1 101950 58
2011-02-24 07:17:52 51°13.661 2°55.962 1.2 51 8.1 101950 58
2011-02-24 07:17:57 51°13.661 2°55.962 0.4 44 8.1 101950 61
2011-02-24 07:18:02 51°13.661 2°55.962 1.2 53 8.1 101950 61
2011-02-24 07:18:07 51°13.661 2°55.961 0.8 27 8.1 101950 59
2011-02-24 07:18:12 51°13.661 2°55.961 0.2 44 8.1 101950 59
2011-02-24 07:18:17 51°13.661 2°55.961 0.2 42 8.1 101950 59
2011-02-24 07:18:22 51°13.661 2°55.961 0.1 41 8.1 101950 59
2011-02-24 07:18:27 51°13.661 2°55.961 -999 43 8.1 101950 59
2011-02-24 07:18:32 51°13.661 2°55.961 0.2 52 8.1 101950 59
2011-02-24 07:18:37 51°13.661 2°55.961 0.1 26 8.1 101950 59
2011-02-24 07:18:41 51°13.661 2°55.962 0.1 54 8.1 101950 59
2011-02-24 07:18:46 51°13.661 2°55.961 -999 23 8.1 101950 59
2011-02-24 07:18:52 51°13.661 2°55.961 2.6 48 8.1 101950 59
2011-02-24 07:18:57 51°13.661 2°55.961 3.8 43 8.1 101950 59
2011-02-24 07:19:02 51°13.661 2°55.962 4.2 44 8.1 101950 59
2011-02-24 07:19:07 51°13.661 2°55.962 3.7 40 8.1 101950 59
2011-02-24 07:19:12 51°13.661 2°55.962 4.3 57 8.1 101950 59
2011-02-24 07:19:17 51°13.661 2°55.962 3.5 41 8.1 101950 60
2011-02-24 07:19:22 51°13.661 2°55.961 3.4 38 8.1 101950 60
2011-02-24 07:19:27 51°13.661 2°55.961 2.4 38 8.1 101950 59
2011-02-24 07:19:32 51°13.661 2°55.961 2.9 43 8.1 101950 59
2011-02-24 07:19:37 51°13.661 2°55.961 0.7 44 8.1 101950 60
2011-02-24 07:19:42 51°13.662 2°55.961 3.2 44 8.1 101950 60
2011-02-24 07:19:47 51°13.662 2°55.961 1.2 42 8.2 101950 59
2011-02-24 07:19:51 51°13.662 2°55.961 0.6 49 8.2 101950 59
2011-02-24 07:19:56 51°13.662 2°55.961 0.2 25 8.2 101950 60
2011-02-24 07:20:02 51°13.662 2°55.961 3.8 45 8.2 101950 60
2011-02-24 07:20:07 51°13.662 2°55.961 3.5 19 8.2 101950 61
2011-02-24 07:20:12 51°13.662 2°55.961 1.3 50 8.2 101950 61
2011-02-24 07:20:17 51°13.662 2°55.961 1.4 25 8.2 101950 59
2011-02-24 07:20:22 51°13.662 2°55.961 0.3 57 8.2 101950 59
2011-02-24 07:20:27 51°13.662 2°55.961 2.2 38 8.2 101950 60
2011-02-24 07:20:32 51°13.662 2°55.961 0.9 57 8.2 101950 60
2011-02-24 07:20:37 51°13.662 2°55.961 0.8 41 8.2 101960 59
2011-02-24 07:20:42 51°13.662 2°55.961 0.8 57 8.2 101960 59
2011-02-24 07:20:47 51°13.662 2°55.96 0.3 26 8.2 101950 59
2011-02-24 07:20:52 51°13.662 2°55.96 0.5 44 8.2 101950 59
2011-02-24 07:20:57 51°13.662 2°55.96 1.3 24 8.2 101950 59
2011-02-24 07:21:02 51°13.662 2°55.96 2.1 58 8.2 101950 59
2011-02-24 07:21:07 51°13.662 2°55.961 2.1 40 8.2 101950 59
2011-02-24 07:21:11 51°13.662 2°55.961 2.1 58 8.2 101950 59
2011-02-24 07:21:17 51°13.662 2°55.961 2.4 38 8.2 101950 61
2011-02-24 07:21:22 51°13.662 2°55.961 4.5 57 8.2 101950 61
2011-02-24 07:21:27 51°13.662 2°55.961 5.3 25 8.2 101950 59
2011-02-24 07:21:32 51°13.662 2°55.962 6 42 8.2 101950 59
2011-02-24 07:21:37 51°13.662 2°55.962 4.5 41 8.2 101950 60
2011-02-24 07:21:42 51°13.662 2°55.962 2.7 40 8.2 101950 60
2011-02-24 07:21:47 51°13.662 2°55.961 3.2 20 8.2 101950 58
2011-02-24 07:21:52 51°13.662 2°55.961 2.2 52 8.2 101950 58
2011-02-24 07:21:57 51°13.662 2°55.961 0.8 26 8.2 101950 60
2011-02-24 07:22:02 51°13.662 2°55.961 1.7 56 8.2 101950 60
2011-02-24 07:22:07 51°13.662 2°55.961 1.5 22 8.2 101950 59
2011-02-24 07:22:12 51°13.662 2°55.961 2.9 40 8.2 101950 59
2011-02-24 07:22:17 51°13.662 2°55.961 4.8 36 8.2 101960 59
2011-02-24 07:22:22 51°13.662 2°55.961 2.5 51 8.2 101960 59
2011-02-24 07:22:27 51°13.662 2°55.961 2.1 42 8.2 101950 59
2011-02-24 07:22:32 51°13.662 2°55.961 2.9 42 8.2 101950 59
2011-02-24 07:22:37 51°13.662 2°55.961 1.6 42 8.2 101950 60
2011-02-24 07:22:42 51°13.662 2°55.961 4.4 55 8.2 101950 60
2011-02-24 07:22:47 51°13.662 2°55.961 4.6 26 8.2 101960 60
2011-02-24 07:22:52 51°13.663 2°55.961 4.4 58 8.2 101960 60
2011-02-24 07:22:57 51°13.663 2°55.961 3.7 38 8.2 101950 59
2011-02-24 07:23:02 51°13.663 2°55.961 2.6 41 8.2 101950 59
2011-02-24 07:23:07 51°13.663 2°55.961 2.5 40 8.2 101960 59
2011-02-24 07:23:12 51°13.663 2°55.961 3.7 54 8.2 101960 59
2011-02-24 07:23:17 51°13.663 2°55.961 3.3 40 8.2 101960 60
2011-02-24 07:23:22 51°13.663 2°55.961 2.2 45 8.2 101960 60
2011-02-24 07:23:27 51°13.663 2°55.961 0.6 24 8.3 101950 59
2011-02-24 07:23:32 51°13.663 2°55.961 0.5 42 8.3 101950 59
2011-02-24 07:23:37 51°13.663 2°55.961 2.3 45 8.2 101950 61
2011-02-24 07:23:42 51°13.663 2°55.961 3.6 43 8.2 101950 61
2011-02-24 07:23:47 51°13.663 2°55.961 4 38 8.3 101960 61
2011-02-24 07:23:51 51°13.663 2°55.961 3.2 45 8.3 101960 61
2011-02-24 07:23:56 51°13.663 2°55.961 2.9 41 8.3 101950 59
2011-02-24 07:24:02 51°13.663 2°55.961 2.9 56 8.3 101950 59
2011-02-24 07:24:07 51°13.663 2°55.961 1.5 24 8.3 101960 60
2011-02-24 07:24:12 51°13.664 2°55.961 4.8 38 8.3 101960 60
2011-02-24 07:24:17 51°13.663 2°55.96 4.4 42 8.3 101950 60
2011-02-24 07:24:22 51°13.663 2°55.96 3.9 33 8.3 101950 60
2011-02-24 07:24:27 51°13.663 2°55.96 0.9 41 8.3 101960 59
2011-02-24 07:24:32 51°13.663 2°55.96 1.4 44 8.3 101960 59
2011-02-24 07:24:37 51°13.663 2°55.96 0.6 26 8.3 101960 59
2011-02-24 07:24:42 51°13.663 2°55.96 0.2 54 8.3 101960 59
2011-02-24 07:24:47 51°13.663 2°55.96 0.1 23 8.3 101950 59
2011-02-24 07:24:51 51°13.663 2°55.96 -999 54 8.3 101950 59
2011-02-24 07:24:57 51°13.663 2°55.96 -999 23 8.3 101960 59
2011-02-24 07:25:02 51°13.663 2°55.96 2.6 58 8.3 101960 59
2011-02-24 07:25:07 51°13.663 2°55.96 3 25 8.3 101960 59
2011-02-24 07:25:12 51°13.663 2°55.96 2.4 44 8.3 101960 59
2011-02-24 07:25:17 51°13.663 2°55.96 3.7 41 8.3 101960 60
2011-02-24 07:25:22 51°13.663 2°55.96 3.6 41 8.3 101960 60
2011-02-24 07:25:26 51°13.663 2°55.96 3.8 39 8.2 101960 59
2011-02-24 07:25:31 51°13.663 2°55.96 2.3 43 8.2 101960 59
2011-02-24 07:25:37 51°13.663 2°55.96 0.6 41 8.3 101960 60
2011-02-24 07:25:42 51°13.663 2°55.96 0.2 53 8.3 101960 60
2011-02-24 07:25:47 51°13.663 2°55.96 0.1 23 8.3 101960 58
2011-02-24 07:25:52 51°13.663 2°55.96 -999 54 8.3 101960 58
2011-02-24 07:25:57 51°13.663 2°55.959 3.3 43 8.3 101960 60
2011-02-24 07:26:02 51°13.663 2°55.959 3.5 58 8.3 101960 60
2011-02-24 07:26:07 51°13.663 2°55.959 1.8 39 8.3 101960 59
2011-02-24 07:26:12 51°13.663 2°55.959 4.7 56 8.3 101960 59
2011-02-24 07:26:17 51°13.663 2°55.959 3.1 23 8.3 101960 59
2011-02-24 07:26:22 51°13.663 2°55.959 3.5 43 8.3 101960 59
2011-02-24 07:26:27 51°13.663 2°55.959 3.8 23 8.3 101960 59
2011-02-24 07:26:32 51°13.663 2°55.959 2.5 76 8.3 101960 59
2011-02-24 07:26:37 51°13.663 2°55.959 3.1 38 8.3 101960 60
2011-02-24 07:26:42 51°13.663 2°55.959 0.9 54 8.3 101960 60
2011-02-24 07:26:47 51°13.663 2°55.959 0.3 18 8.3 101960 59
2011-02-24 07:26:52 51°13.663 2°55.959 2.4 45 8.3 101960 59
2011-02-24 07:26:57 51°13.663 2°55.959 0.7 20 8.3 101960 59
2011-02-24 07:27:01 51°13.663 2°55.959 0.2 45 8.3 101960 59
2011-02-24 07:27:06 51°13.663 2°55.959 0.1 22 8.3 101960 58
2011-02-24 07:27:12 51°13.663 2°55.959 0.1 54 8.3 101960 58
2011-02-24 07:27:17 51°13.663 2°55.959 -999 23 8.3 101960 59
2011-02-24 07:27:22 51°13.664 2°55.96 -999 44 8.3 101960 59
2011-02-24 07:27:27 51°13.664 2°55.96 -999 23 8.3 101960 59
2011-02-24 07:27:32 51°13.664 2°55.96 -999 77 8.3 101960 59
2011-02-24 07:27:37 51°13.664 2°55.96 -999 23 8.3 101960 59
2011-02-24 07:27:41 51°13.664 2°55.96 -999 54 8.3 101960 59
2011-02-24 07:27:46 51°13.664 2°55.96 -999 23 8.3 101960 59
2011-02-24 07:27:52 51°13.664 2°55.96 -999 54 8.3 101960 59
2011-02-24 07:27:57 51°13.663 2°55.96 -999 23 8.3 101960 59
2011-02-24 07:28:02 51°13.663 2°55.96 -999 54 8.3 101960 59
2011-02-24 07:28:07 51°13.663 2°55.96 -999 23 8.3 101960 59
2011-02-24 07:28:12 51°13.663 2°55.96 -999 54 8.3 101960 59
2011-02-24 07:28:17 51°13.663 2°55.96 0.9 40 8.2 101960 59
2011-02-24 07:28:22 51°13.663 2°55.96 0.5 39 8.2 101960 59
2011-02-24 07:28:27 51°13.663 2°55.96 0.2 41 8.2 101960 58
2011-02-24 07:28:32 51°13.663 2°55.96 0.3 73 8.2 101960 58
2011-02-24 07:28:37 51°13.663 2°55.96 0.2 22 8.2 101960 59
2011-02-24 07:28:42 51°13.663 2°55.96 0.1 54 8.2 101960 59
2011-02-24 07:28:47 51°13.663 2°55.96 -999 39 8.2 101960 59
2011-02-24 07:28:52 51°13.663 2°55.96 -999 54 8.2 101960 59
2011-02-24 07:28:57 51°13.663 2°55.96 0.7 42 8.2 101960 59
2011-02-24 07:29:02 51°13.663 2°55.96 0.1 54 8.2 101960 59
2011-02-24 07:29:07 51°13.663 2°55.96 0.4 28 8.2 101960 59
2011-02-24 07:29:11 51°13.663 2°55.96 0.8 54 8.2 101960 59
2011-02-24 07:29:17 51°13.663 2°55.96 3.3 24 8.2 101960 59
2011-02-24 07:29:21 51°13.663 2°55.96 0.9 52 8.2 101960 59
2011-02-24 07:29:27 51°13.663 2°55.959 2.4 22 8.2 101960 59
2011-02-24 07:29:32 51°13.663 2°55.959 3.5 75 8.2 101960 59
2011-02-24 07:29:37 51°13.663 2°55.96 4 24 8.3 101960 60
2011-02-24 07:29:42 51°13.663 2°55.959 2.8 51 8.3 101960 60
2011-02-24 07:29:47 51°13.662 2°55.959 1.1 44 8.3 101950 59
2011-02-24 07:29:52 51°13.662 2°55.959 4.1 57 8.3 101950 59
2011-02-24 07:29:56 51°13.662 2°55.959 4.1 22 8.3 101960 58
2011-02-24 07:30:01 51°13.662 2°55.959 3.2 51 8.3 101960 58
2011-02-24 07:30:07 51°13.662 2°55.959 2.8 25 8.3 101960 60
2011-02-24 07:30:12 51°13.662 2°55.959 2.8 55 8.3 101960 60
2011-02-24 07:30:17 51°13.662 2°55.959 3 43 8.3 101960 59
2011-02-24 07:30:22 51°13.662 2°55.959 2.3 51 8.3 101960 59
2011-02-24 07:30:27 51°13.662 2°55.959 1.8 45 8.3 101960 60
2011-02-24 07:30:32 51°13.662 2°55.959 0.4 80 8.3 101960 60
2011-02-24 07:30:37 51°13.662 2°55.959 0.4 37 8.3 101960 60
2011-02-24 07:30:42 51°13.662 2°55.959 1.9 51 8.3 101960 60
2011-02-24 07:30:47 51°13.662 2°55.959 0.2 44 8.3 101960 59
2011-02-24 07:30:52 51°13.662 2°55.96 3.5 38 8.3 101960 59
2011-02-24 07:30:56 51°13.662 2°55.96 3.2 21 8.3 101960 58
2011-02-24 07:31:01 51°13.662 2°55.96 3.1 57 8.3 101960 58
2011-02-24 07:31:06 51°13.662 2°55.96 1.2 19 8.3 101960 59
2011-02-24 07:31:12 51°13.662 2°55.959 0.7 42 8.3 101960 59
2011-02-24 07:31:17 51°13.662 2°55.959 0.9 20 8.3 101960 60
2011-02-24 07:31:22 51°13.662 2°55.959 2.3 59 8.3 101960 60
2011-02-24 07:31:27 51°13.662 2°55.959 2 27 8.3 101960 59
2011-02-24 07:31:32 51°13.662 2°55.959 3.8 81 8.3 101960 59
2011-02-24 07:31:37 51°13.662 2°55.959 3.4 25 8.3 101960 59
2011-02-24 07:31:42 51°13.662 2°55.959 4 55 8.3 101960 59
2011-02-24 07:31:47 51°13.662 2°55.959 3.3 22 8.4 101960 58
2011-02-24 07:31:52 51°13.662 2°55.959 4.3 56 8.4 101960 58
2011-02-24 07:31:57 51°13.662 2°55.959 3 24 8.4 101960 59
2011-02-24 07:32:02 51°13.662 2°55.959 1 43 8.4 101960 59
2011-02-24 07:32:07 51°13.662 2°55.959 1.7 42 8.4 101960 59
2011-02-24 07:32:11 51°13.662 2°55.959 0.9 44 8.4 101960 59
2011-02-24 07:32:16 51°13.662 2°55.959 0.2 22 8.4 101960 59
2011-02-24 07:32:22 51°13.662 2°55.959 2.4 51 8.4 101960 59
2011-02-24 07:32:27 51°13.662 2°55.959 2.6 26 8.4 101960 60
2011-02-24 07:32:32 51°13.662 2°55.959 0.3 37 8.4 101960 60
2011-02-24 07:32:37 51°13.662 2°55.96 0.1 23 8.3 101960 59
2011-02-24 07:32:42 51°13.662 2°55.959 0.5 51 8.3 101960 59
2011-02-24 07:32:47 51°13.662 2°55.959 0.3 44 8.4 101960 60
2011-02-24 07:32:52 51°13.662 2°55.96 3.8 39 8.4 101960 60
2011-02-24 07:32:57 51°13.662 2°55.96 4.2 41 8.4 101960 59
2011-02-24 07:33:02 51°13.662 2°55.96 2.4 45 8.4 101960 59
2011-02-24 07:33:06 51°13.662 2°55.96 2.7 45 8.3 101960 59
2011-02-24 07:33:11 51°13.662 2°55.96 4.2 51 8.3 101960 59
2011-02-24 07:33:16 51°13.662 2°55.96 3.9 19 8.4 101960 58
2011-02-24 07:33:22 51°13.662 2°55.959 4 54 8.4 101960 58
2011-02-24 07:33:26 51°13.662 2°55.959 2.5 21 8.4 101960 58
2011-02-24 07:33:31 51°13.662 2°55.959 4.2 79 8.4 101960 58
2011-02-24 07:33:36 51°13.662 2°55.96 4.6 44 8.4 101960 59
2011-02-24 07:33:42 51°13.662 2°55.96 4.2 43 8.4 101960 59
2011-02-24 07:33:47 51°13.662 2°55.96 2.2 44 8.4 101960 59
2011-02-24 07:33:52 51°13.662 2°55.96 3.8 43 8.4 101960 59
2011-02-24 07:33:57 51°13.662 2°55.96 1.9 28 8.4 101960 60
2011-02-24 07:34:02 51°13.662 2°55.96 0.9 53 8.4 101960 60
2011-02-24 07:34:07 51°13.662 2°55.96 1.6 23 8.4 101960 60
2011-02-24 07:34:12 51°13.662 2°55.96 0.2 55 8.4 101960 60
2011-02-24 07:34:17 51°13.662 2°55.96 1.5 26 8.4 101960 60
2011-02-24 07:34:21 51°13.662 2°55.959 2.7 52 8.4 101960 60
2011-02-24 07:34:27 51°13.662 2°55.96 1.4 26 8.4 101960 60
2011-02-24 07:34:32 51°13.662 2°55.96 4.4 52 8.4 101960 60
2011-02-24 07:34:37 51°13.662 2°55.96 3.5 23 8.4 101960 59
2011-02-24 07:34:42 51°13.662 2°55.96 4.4 43 8.4 101960 59
2011-02-24 07:34:47 51°13.661 2°55.96 2.6 28 8.4 101960 59
2011-02-24 07:34:52 51°13.662 2°55.96 0.9 43 8.4 101960 59
2011-02-24 07:34:57 51°13.662 2°55.96 4.3 26 8.4 101960 59
2011-02-24 07:35:02 51°13.662 2°55.96 4.8 57 8.4 101960 59
2011-02-24 07:35:06 51°13.661 2°55.96 4.8 27 8.4 101960 60
2011-02-24 07:35:12 51°13.661 2°55.96 4.3 49 8.4 101960 60
2011-02-24 07:35:17 51°13.662 2°55.96 2.8 23 8.4 101960 58
2011-02-24 07:35:22 51°13.662 2°55.961 1 57 8.4 101960 58
2011-02-24 07:35:27 51°13.662 2°55.96 2.2 25 8.5 101960 60
2011-02-24 07:35:32 51°13.662 2°55.961 0.9 82 8.5 101960 60
2011-02-24 07:35:36 51°13.662 2°55.961 0.9 43 8.5 101960 59
2011-02-24 07:35:41 51°13.662 2°55.961 1.5 38 8.5 101960 59
2011-02-24 07:35:46 51°13.662 2°55.961 4.1 21 8.5 101960 58
2011-02-24 07:35:52 51°13.662 2°55.96 5.4 44 8.5 101960 58
2011-02-24 07:35:57 51°13.662 2°55.96 4.6 44 8.5 101960 59
2011-02-24 07:36:02 51°13.662 2°55.961 4.1 53 8.5 101960 59
2011-02-24 07:36:07 51°13.662 2°55.961 4 41 8.5 101960 60
2011-02-24 07:36:12 51°13.662 2°55.961 3.8 44 8.5 101960 60
2011-02-24 07:36:17 51°13.662 2°55.961 3.6 45 8.5 101960 58
2011-02-24 07:36:22 51°13.662 2°55.961 3.5 42 8.5 101960 58
2011-02-24 07:36:27 51°13.662 2°55.961 3.2 42 8.5 101960 60
2011-02-24 07:36:32 51°13.662 2°55.96 0.4 44 8.5 101960 60
2011-02-24 07:36:37 51°13.662 2°55.96 0.2 32 8.5 101960 60
2011-02-24 07:36:42 51°13.662 2°55.961 2.3 43 8.5 101960 60
2011-02-24 07:36:47 51°13.662 2°55.961 2.5 20 8.5 101960 59
2011-02-24 07:36:52 51°13.662 2°55.96 0.2 58 8.5 101960 59
2011-02-24 07:36:57 51°13.662 2°55.96 1.9 19 8.5 101960 59
2011-02-24 07:37:02 51°13.662 2°55.961 3.1 55 8.5 101960 59
2011-02-24 07:37:07 51°13.662 2°55.96 3.5 43 8.5 101960 59
2011-02-24 07:37:12 51°13.662 2°55.96 3 43 8.5 101960 59
2011-02-24 07:37:17 51°13.662 2°55.96 4.4 28 8.5 101960 60
2011-02-24 07:37:22 51°13.662 2°55.96 4 43 8.5 101960 60
2011-02-24 07:37:27 51°13.662 2°55.96 3.8 44 8.5 101970 58
2011-02-24 07:37:32 51°13.662 2°55.96 4.1 45 8.5 101970 58
2011-02-24 07:37:37 51°13.662 2°55.96 1.4 22 8.5 101960 60
2011-02-24 07:37:42 51°13.662 2°55.96 3.9 44 8.5 101960 60
2011-02-24 07:37:47 51°13.662 2°55.961 3.6 43 8.5 101960 60
2011-02-24 07:37:52 51°13.662 2°55.961 3.8 43 8.5 101960 60
2011-02-24 07:37:56 51°13.662 2°55.961 2.8 20 8.5 101970 61
2011-02-24 07:38:01 51°13.662 2°55.96 0.8 54 8.5 101970 61
2011-02-24 07:38:06 51°13.662 2°55.96 0.4 26 8.5 101960 60
2011-02-24 07:38:11 51°13.662 2°55.96 0.1 51 8.5 101960 60
2011-02-24 07:38:16 51°13.662 2°55.961 0.1 22 8.5 101960 60
2011-02-24 07:38:22 51°13.662 2°55.96 0.1 54 8.5 101960 60
2011-02-24 07:38:27 51°13.662 2°55.96 -999 23 8.5 101970 59
2011-02-24 07:38:32 51°13.662 2°55.96 -999 77 8.5 101970 59
2011-02-24 07:38:37 51°13.662 2°55.96 -999 44 8.5 101970 59
2011-02-24 07:38:42 51°13.662 2°55.961 -999 54 8.5 101970 59
2011-02-24 07:38:47 51°13.662 2°55.961 -999 23 8.5 101970 59
2011-02-24 07:38:52 51°13.662 2°55.961 1.2 39 8.5 101970 59
2011-02-24 07:38:57 51°13.662 2°55.961 0.2 20 8.5 101970 59
2011-02-24 07:39:02 51°13.662 2°55.961 0.3 45 8.5 101970 59
2011-02-24 07:39:07 51°13.662 2°55.961 0.1 25 8.5 101970 58
2011-02-24 07:39:12 51°13.662 2°55.96 0.1 49 8.5 101970 58
2011-02-24 07:39:16 51°13.662 2°55.96 0.1 21 8.5 101970 59
2011-02-24 07:39:22 51°13.662 2°55.96 0.1 39 8.5 101970 59
2011-02-24 07:39:26 51°13.662 2°55.96 0.9 39 8.5 101970 59
2011-02-24 07:39:32 51°13.662 2°55.96 0.9 43 8.5 101970 59
2011-02-24 07:39:36 51°13.662 2°55.961 0.2 42 8.5 101970 59
2011-02-24 07:39:41 51°13.662 2°55.961 1.4 52 8.5 101970 59
2011-02-24 07:39:46 51°13.662 2°55.961 1.9 36 8.5 101970 58
2011-02-24 07:39:51 51°13.662 2°55.961 2.5 43 8.5 101970 58
2011-02-24 07:39:56 51°13.662 2°55.961 3.3 42 8.5 101970 59
2011-02-24 07:40:02 51°13.662 2°55.961 1.4 51 8.5 101970 59
2011-02-24 07:40:07 51°13.662 2°55.961 0.9 20 8.5 101970 59
2011-02-24 07:40:12 51°13.662 2°55.961 1.7 54 8.5 101970 59
2011-02-24 07:40:17 51°13.662 2°55.961 0.3 23 8.5 101970 58
2011-02-24 07:40:22 51°13.662 2°55.961 1.3 54 8.5 101970 58
2011-02-24 07:40:27 51°13.662 2°55.961 0.3 21 8.5 101970 59
2011-02-24 07:40:32 51°13.662 2°55.961 0.1 78 8.5 101970 59
2011-02-24 07:40:37 51°13.662 2°55.961 0.1 23 8.6 101970 58
2011-02-24 07:40:42 51°13.662 2°55.96 2.1 49 8.6 101970 58
2011-02-24 07:40:47 51°13.662 2°55.96 3.3 21 8.6 101970 59
2011-02-24 07:40:52 51°13.662 2°55.961 0.3 58 8.6 101970 59
2011-02-24 07:40:56 51°13.662 2°55.961 1.6 24 8.6 101970 59
2011-02-24 07:41:02 51°13.662 2°55.961 2.3 49 8.6 101970 59
2011-02-24 07:41:07 51°13.662 2°55.961 2.7 19 8.6 101980 59
2011-02-24 07:41:12 51°13.662 2°55.961 2.3 58 8.6 101980 59
2011-02-24 07:41:17 51°13.662 2°55.961 2 20 8.6 101970 59
2011-02-24 07:41:22 51°13.662 2°55.961 4.9 53 8.6 101970 59
2011-02-24 07:41:27 51°13.662 2°55.961 3.9 26 8.6 101980 59
2011-02-24 07:41:32 51°13.662 2°55.961 4.3 75 8.6 101980 59
2011-02-24 07:41:37 51°13.662 2°55.961 3.5 28 8.6 101980 60
2011-02-24 07:41:42 51°13.662 2°55.961 5 49 8.6 101980 60
2011-02-24 07:41:47 51°13.662 2°55.961 5.1 27 8.6 101980 60
2011-02-24 07:41:52 51°13.662 2°55.961 4.6 42 8.6 101980 60
2011-02-24 07:41:57 51°13.662 2°55.961 4.3 45 8.6 101980 60
2011-02-24 07:42:02 51°13.662 2°55.961 5 42 8.6 101980 60
2011-02-24 07:42:07 51°13.662 2°55.961 3.2 22 8.6 101980 60
2011-02-24 07:42:12 51°13.662 2°55.961 3.9 51 8.6 101980 60
2011-02-24 07:42:17 51°13.662 2°55.961 4.3 26 8.7 101980 59
2011-02-24 07:42:22 51°13.662 2°55.961 4 57 8.7 101980 59
2011-02-24 07:42:27 51°13.662 2°55.962 4.7 44 8.7 101980 60
2011-02-24 07:42:32 51°13.662 2°55.961 3.2 45 8.7 101980 60
2011-02-24 07:42:36 51°13.662 2°55.961 3.3 22 8.7 101980 58
2011-02-24 07:42:42 51°13.662 2°55.962 2.8 56 8.7 101980 58
2011-02-24 07:42:47 51°13.662 2°55.962 4.2 24 8.7 101980 59
2011-02-24 07:42:52 51°13.662 2°55.962 3.9 52 8.7 101980 59
2011-02-24 07:42:57 51°13.662 2°55.962 3.6 43 8.7 101980 59
2011-02-24 07:43:02 51°13.662 2°55.961 5.2 50 8.7 101980 59
2011-02-24 07:43:07 51°13.662 2°55.961 4.7 41 8.7 101980 59
2011-02-24 07:43:12 51°13.662 2°55.961 3.7 43 8.7 101980 59
2011-02-24 07:43:17 51°13.662 2°55.961 1.5 26 8.7 101980 58
2011-02-24 07:43:22 51°13.662 2°55.962 3.9 45 8.7 101980 58
2011-02-24 07:43:27 51°13.662 2°55.962 4.1 27 8.6 101980 58
2011-02-24 07:43:31 51°13.662 2°55.962 4.9 44 8.6 101980 58
2011-02-24 07:43:36 51°13.662 2°55.962 4.5 25 8.6 101980 59
2011-02-24 07:43:42 51°13.662 2°55.962 3.7 57 8.6 101980 59
2011-02-24 07:43:47 51°13.662 2°55.962 3.7 28 8.6 101980 59
2011-02-24 07:43:52 51°13.662 2°55.961 3.5 54 8.6 101980 59
2011-02-24 07:43:57 51°13.662 2°55.961 1.7 20 8.6 101980 60
2011-02-24 07:44:02 51°13.662 2°55.961 3.7 51 8.6 101980 60
2011-02-24 07:44:07 51°13.662 2°55.961 4.6 44 8.6 101990 59
2011-02-24 07:44:12 51°13.662 2°55.961 2 52 8.6 101990 59
2011-02-24 07:44:17 51°13.662 2°55.961 2.7 38 8.6 101990 59
2011-02-24 07:44:22 51°13.662 2°55.962 3.1 44 8.6 101990 59
2011-02-24 07:44:27 51°13.662 2°55.961 3.2 38 8.6 101980 58
2011-02-24 07:44:32 51°13.662 2°55.961 3.9 41 8.6 101980 58
2011-02-24 07:44:37 51°13.662 2°55.961 2.9 41 8.6 101990 60
2011-02-24 07:44:42 51°13.663 2°55.961 3.8 44 8.6 101990 60
2011-02-24 07:44:47 51°13.663 2°55.961 0.5 26 8.6 101990 60
2011-02-24 07:44:52 51°13.662 2°55.961 0.2 53 8.6 101990 60
2011-02-24 07:44:57 51°13.662 2°55.961 0.8 41 8.6 101980 58
2011-02-24 07:45:02 51°13.662 2°55.961 1.9 51 8.6 101980 58
2011-02-24 07:45:07 51°13.662 2°55.961 3.1 24 8.6 101990 59
2011-02-24 07:45:12 51°13.663 2°55.961 4.7 57 8.6 101990 59
2011-02-24 07:45:17 51°13.663 2°55.961 4.4 24 8.6 101990 59
2011-02-24 07:45:22 51°13.663 2°55.961 4.4 43 8.6 101990 59
2011-02-24 07:45:27 51°13.663 2°55.961 4.2 38 8.6 101990 58
2011-02-24 07:45:32 51°13.663 2°55.961 4.2 43 8.6 101990 58
2011-02-24 07:45:37 51°13.663 2°55.961 3.7 41 8.6 101990 58
2011-02-24 07:45:42 51°13.663 2°55.961 3.4 38 8.6 101990 58
2011-02-24 07:45:47 51°13.663 2°55.961 3.8 22 8.6 101990 60
2011-02-24 07:45:52 51°13.663 2°55.961 2.1 56 8.6 101990 60
2011-02-24 07:45:57 51°13.663 2°55.961 3.6 26 8.6 101990 60
2011-02-24 07:46:02 51°13.663 2°55.961 2.9 57 8.6 101990 60
2011-02-24 07:46:07 51°13.663 2°55.961 2.5 42 8.6 101990 60
2011-02-24 07:46:12 51°13.663 2°55.961 0.5 41 8.6 101990 60
2011-02-24 07:46:16 51°13.663 2°55.961 1.9 39 8.6 101990 59
2011-02-24 07:46:21 51°13.663 2°55.961 2.8 42 8.6 101990 59
2011-02-24 07:46:26 51°13.663 2°55.961 3 42 8.6 101990 59
2011-02-24 07:46:31 51°13.663 2°55.961 0.5 75 8.6 101990 59
2011-02-24 07:46:37 51°13.663 2°55.962 0.6 21 8.6 101990 58
2011-02-24 07:46:42 51°13.663 2°55.961 0.2 56 8.6 101990 58
2011-02-24 07:46:47 51°13.663 2°55.961 0.7 21 8.6 101990 58
2011-02-24 07:46:52 51°13.663 2°55.961 1.5 42 8.6 101990 58
2011-02-24 07:46:57 51°13.663 2°55.961 4.1 42 8.6 101990 59
2011-02-24 07:47:02 51°13.663 2°55.961 4 50 8.6 101990 59
2011-02-24 07:47:07 51°13.663 2°55.961 3.9 22 8.6 101990 59
2011-02-24 07:47:12 51°13.663 2°55.961 4 36 8.6 101990 59
2011-02-24 07:47:17 51°13.663 2°55.961 3.7 42 8.6 101990 59
2011-02-24 07:47:22 51°13.662 2°55.961 2.2 45 8.6 101990 59
2011-02-24 07:47:27 51°13.662 2°55.961 3 25 8.6 101990 58
2011-02-24 07:47:32 51°13.662 2°55.961 4.3 76 8.6 101990 58
2011-02-24 07:47:37 51°13.662 2°55.961 4.4 36 8.6 101990 59
2011-02-24 07:47:42 51°13.663 2°55.961 3.3 45 8.6 101990 59
2011-02-24 07:47:47 51°13.662 2°55.961 4.4 39 8.6 101990 58
2011-02-24 07:47:51 51°13.662 2°55.961 3.3 52 8.6 101990 58
2011-02-24 07:47:56 51°13.663 2°55.961 3.4 23 8.6 101990 60
2011-02-24 07:48:01 51°13.663 2°55.961 4.1 54 8.6 101990 60
2011-02-24 07:48:07 51°13.662 2°55.961 4.2 44 8.6 101990 59
2011-02-24 07:48:12 51°13.662 2°55.961 5.1 51 8.6 101990 59
2011-02-24 07:48:17 51°13.662 2°55.961 3.9 22 8.6 101990 58
2011-02-24 07:48:22 51°13.662 2°55.961 5.7 51 8.6 101990 58
2011-02-24 07:48:27 51°13.662 2°55.961 3.3 45 8.6 101990 58
2011-02-24 07:48:32 51°13.662 2°55.961 2.2 75 8.6 101990 58
2011-02-24 07:48:37 51°13.662 2°55.961 2.1 43 8.6 101990 59
2011-02-24 07:48:42 51°13.662 2°55.961 1.4 42 8.6 101990 59
2011-02-24 07:48:47 51°13.662 2°55.961 3.2 28 8.6 101990 60
2011-02-24 07:48:52 51°13.662 2°55.961 2.8 57 8.6 101990 60
2011-02-24 07:48:57 51°13.662 2°55.96 2.2 20 8.6 101990 58
2011-02-24 07:49:02 51°13.662 2°55.96 1.5 58 8.6 101990 58
2011-02-24 07:49:07 51°13.663 2°55.96 0.4 22 8.6 101990 58
2011-02-24 07:49:12 51°13.663 2°55.961 2.2 52 8.6 101990 58
2011-02-24 07:49:17 51°13.662 2°55.961 2.3 26 8.6 101990 60
2011-02-24 07:49:22 51°13.662 2°55.96 2.8 49 8.6 101990 60
2011-02-24 07:49:27 51°13.662 2°55.961 2.6 27 8.6 101990 59
2011-02-24 07:49:32 51°13.662 2°55.961 0.7 53 8.6 101990 59
2011-02-24 07:49:37 51°13.662 2°55.96 2.1 23 8.6 102000 59
2011-02-24 07:49:42 51°13.662 2°55.96 3 55 8.6 102000 59
2011-02-24 07:49:47 51°13.662 2°55.96 2.4 24 8.6 101990 59
2011-02-24 07:49:52 51°13.662 2°55.96 3.3 52 8.6 101990 59
2011-02-24 07:49:57 51°13.662 2°55.96 4.2 36 8.6 102000 60
2011-02-24 07:50:02 51°13.661 2°55.96 2.4 54 8.6 102000 60
2011-02-24 07:50:07 51°13.661 2°55.96 3.9 19 8.6 102000 59
2011-02-24 07:50:12 51°13.661 2°55.96 3.2 58 8.6 102000 59
2011-02-24 07:50:17 51°13.662 2°55.961 1.7 27 8.6 102000 59
2011-02-24 07:50:22 51°13.662 2°55.961 1 49 8.6 102000 59
2011-02-24 07:50:27 51°13.662 2°55.961 1.7 27 8.6 102000 58
2011-02-24 07:50:31 51°13.662 2°55.961 1.9 79 8.6 102000 58
2011-02-24 07:50:37 51°13.662 2°55.961 3.8 22 8.6 102000 59
2011-02-24 07:50:42 51°13.662 2°55.961 3.5 50 8.6 102000 59
2011-02-24 07:50:46 51°13.662 2°55.961 2.9 25 8.6 102000 59
2011-02-24 07:50:51 51°13.662 2°55.961 0.4 57 8.6 102000 59
2011-02-24 07:50:56 51°13.662 2°55.961 0.1 20 8.6 102000 58
2011-02-24 07:51:02 51°13.662 2°55.961 0.1 53 8.6 102000 58
2011-02-24 07:51:07 51°13.662 2°55.961 0.1 23 8.6 102000 58
2011-02-24 07:51:12 51°13.662 2°55.961 1 57 8.6 102000 58
2011-02-24 07:51:17 51°13.661 2°55.961 0.2 25 8.6 102000 59
2011-02-24 07:51:22 51°13.661 2°55.961 2.1 58 8.6 102000 59
2011-02-24 07:51:27 51°13.661 2°55.961 3.3 41 8.6 102000 58
2011-02-24 07:51:32 51°13.661 2°55.961 4.1 57 8.6 102000 58
2011-02-24 07:51:37 51°13.661 2°55.961 3.1 24 8.5 102000 59
2011-02-24 07:51:41 51°13.662 2°55.961 3.5 50 8.5 102000 59
2011-02-24 07:51:46 51°13.661 2°55.961 2 22 8.5 102000 58
2011-02-24 07:51:51 51°13.662 2°55.961 0.6 53 8.5 102000 58
2011-02-24 07:51:56 51°13.662 2°55.961 2.2 44 8.6 102010 58
2011-02-24 07:52:02 51°13.662 2°55.961 4.3 42 8.6 102010 58
2011-02-24 07:52:07 51°13.662 2°55.961 4.3 42 8.5 102000 59
2011-02-24 07:52:12 51°13.662 2°55.961 4.3 57 8.5 102000 59
2011-02-24 07:52:17 51°13.662 2°55.961 3.7 27 8.5 102000 59
2011-02-24 07:52:22 51°13.662 2°55.961 2.5 50 8.5 102000 59
2011-02-24 07:52:27 51°13.662 2°55.961 4.4 21 8.5 102010 59
2011-02-24 07:52:32 51°13.662 2°55.961 3.9 74 8.5 102010 59
2011-02-24 07:52:37 51°13.662 2°55.961 3.8 44 8.5 102000 59
2011-02-24 07:52:42 51°13.662 2°55.961 2.5 58 8.5 102000 59
2011-02-24 07:52:47 51°13.661 2°55.961 1.6 20 8.5 102000 58
2011-02-24 07:52:52 51°13.661 2°55.961 0.3 56 8.5 102000 58
2011-02-24 07:52:57 51°13.661 2°55.961 1.3 21 8.5 102010 59
2011-02-24 07:53:02 51°13.661 2°55.961 0.6 49 8.5 102010 59
2011-02-24 07:53:07 51°13.661 2°55.961 3.6 19 8.5 102010 58
2011-02-24 07:53:12 51°13.661 2°55.961 4 52 8.5 102010 58
2011-02-24 07:53:17 51°13.661 2°55.961 2.4 28 8.5 102010 59
2011-02-24 07:53:22 51°13.661 2°55.961 1.8 52 8.5 102010 59
2011-02-24 07:53:27 51°13.662 2°55.961 3.3 26 8.5 102010 59
2011-02-24 07:53:32 51°13.661 2°55.962 4.5 58 8.5 102010 59
2011-02-24 07:53:37 51°13.661 2°55.961 4.5 24 8.5 102010 58
2011-02-24 07:53:42 51°13.661 2°55.961 4.1 58 8.5 102010 58
2011-02-24 07:53:47 51°13.661 2°55.961 3.2 20 8.5 102010 58
2011-02-24 07:53:52 51°13.661 2°55.961 1.8 42 8.5 102010 58
2011-02-24 07:53:57 51°13.661 2°55.961 1.1 42 8.5 102010 60
2011-02-24 07:54:01 51°13.661 2°55.962 1.8 50 8.5 102010 60
2011-02-24 07:54:07 51°13.661 2°55.961 2.1 27 8.5 102010 58
2011-02-24 07:54:11 51°13.661 2°55.961 3.5 45 8.5 102010 58
2011-02-24 07:54:16 51°13.661 2°55.962 2.3 24 8.5 102010 59
2011-02-24 07:54:21 51°13.661 2°55.961 4 40 8.5 102010 59
2011-02-24 07:54:27 51°13.661 2°55.961 2.5 27 8.5 102010 58
2011-02-24 07:54:32 51°13.662 2°55.961 4.7 45 8.5 102010 58
2011-02-24 07:54:37 51°13.662 2°55.961 5.6 20 8.5 102010 58
2011-02-24 07:54:42 51°13.662 2°55.961 5.6 37 8.5 102010 58
2011-02-24 07:54:47 51°13.662 2°55.962 5.2 38 8.5 102010 58
2011-02-24 07:54:52 51°13.662 2°55.962 3.6 50 8.5 102010 58
2011-02-24 07:54:57 51°13.662 2°55.962 2.7 45 8.5 102010 58
2011-02-24 07:55:02 51°13.662 2°55.961 2.4 45 8.5 102010 58
2011-02-24 07:55:07 51°13.661 2°55.961 4.1 25 8.5 102010 58
2011-02-24 07:55:12 51°13.661 2°55.961 3.1 50 8.5 102010 58
2011-02-24 07:55:16 51°13.661 2°55.961 1 22 8.5 102010 58
2011-02-24 07:55:22 51°13.661 2°55.961 3.3 56 8.5 102010 58
2011-02-24 07:55:26 51°13.662 2°55.961 4.2 20 8.5 102010 59
2011-02-24 07:55:31 51°13.662 2°55.962 2.9 55 8.5 102010 59
2011-02-24 07:55:37 51°13.662 2°55.962 4.1 19 8.5 102010 59
2011-02-24 07:55:42 51°13.662 2°55.962 0.3 52 8.5 102010 59
2011-02-24 07:55:47 51°13.662 2°55.962 1.8 22 8.5 102010 60
2011-02-24 07:55:52 51°13.662 2°55.961 3.4 58 8.5 102010 60
2011-02-24 07:55:57 51°13.662 2°55.961 2.7 25 8.5 102010 60
2011-02-24 07:56:02 51°13.662 2°55.961 3.3 51 8.5 102010 60
2011-02-24 07:56:07 51°13.662 2°55.961 3.4 20 8.5 102010 58
2011-02-24 07:56:11 51°13.662 2°55.961 4 52 8.5 102010 58
2011-02-24 07:56:17 51°13.662 2°55.961 3.6 26 8.5 102010 59
2011-02-24 07:56:21 51°13.662 2°55.961 3.6 26 8.5 102010 59
2011-02-24 07:56:27 51°13.662 2°55.961 3.6 26 8.5 102010 59
2011-02-24 07:56:32 51°13.662 2°55.961 3.6 26 8.5 102010 59
2011-02-24 07:56:37 51°13.662 2°55.961 3.6 26 8.5 102010 59
2011-02-24 07:56:42 51°13.662 2°55.961 3.6 26 8.5 102010 59
2011-02-24 07:56:47 51°13.662 2°55.961 3.6 26 -999 -999 -999
2011-02-24 07:56:52 51°13.662 2°55.961 -999 -999 -999 -999 -999
2011-02-24 07:56:57 51°13.662 2°55.961 3.3 18 -999 -999 -999
2011-02-24 07:57:01 51°13.662 2°55.961 3 81 -999 -999 -999
2011-02-24 07:57:07 51°13.662 2°55.961 1.1 26 -999 -999 -999
2011-02-24 07:57:12 51°13.662 2°55.961 0.7 57 -999 -999 -999
2011-02-24 07:57:16 51°13.662 2°55.961 1.1 19 8.4 -999 40
2011-02-24 07:57:22 51°13.662 2°55.961 3.5 73 8.4 -999 40
2011-02-24 07:57:26 51°13.662 2°55.961 3.1 20 8.4 -999 60
2011-02-24 07:57:32 51°13.662 2°55.961 2.6 81 8.4 -999 60
2011-02-24 07:57:36 51°13.662 2°55.961 1.9 25 8.4 102020 58
2011-02-24 07:57:42 51°13.662 2°55.961 3 43 8.4 102020 58
2011-02-24 07:57:46 51°13.662 2°55.961 3.5 24 8.5 102010 58
2011-02-24 07:57:51 51°13.662 2°55.961 3.3 74 8.5 102010 58
2011-02-24 07:57:57 51°13.662 2°55.961 3.6 22 8.5 102010 59
2011-02-24 07:58:02 51°13.662 2°55.961 3 74 8.5 102010 59
2011-02-24 07:58:07 51°13.662 2°55.961 3 18 8.5 102010 58
2011-02-24 07:58:12 51°13.662 2°55.961 2.6 74 8.5 102010 58
2011-02-24 07:58:17 51°13.662 2°55.961 2.7 19 8.4 102010 59
2011-02-24 07:58:21 51°13.662 2°55.962 3.3 78 8.4 102010 59
2011-02-24 07:58:27 51°13.662 2°55.961 2.9 22 8.4 102020 58
2011-02-24 07:58:32 51°13.662 2°55.961 2 80 8.4 102020 58
2011-02-24 07:58:37 51°13.662 2°55.962 3.1 19 8.4 102010 58
2011-02-24 07:58:42 51°13.662 2°55.962 1.6 76 8.4 102010 58
2011-02-24 07:58:47 51°13.662 2°55.962 2 41 8.4 102020 59
2011-02-24 07:58:52 51°13.662 2°55.962 2.8 43 8.4 102020 59
2011-02-24 07:58:57 51°13.662 2°55.962 2 26 8.4 102010 60
2011-02-24 07:59:01 51°13.662 2°55.962 4.4 80 8.4 102010 60
2011-02-24 07:59:07 51°13.662 2°55.962 4.2 22 8.4 102010 59
2011-02-24 07:59:12 51°13.662 2°55.962 0.8 56 8.4 102010 59
2011-02-24 07:59:17 51°13.662 2°55.962 0.4 44 8.4 102020 59
2011-02-24 07:59:22 51°13.662 2°55.961 1.4 44 8.4 102020 59
2011-02-24 07:59:27 51°13.662 2°55.961 1.3 37 8.4 102020 57
2011-02-24 07:59:32 51°13.662 2°55.961 0.9 76 8.4 102020 57
2011-02-24 07:59:37 51°13.662 2°55.961 1.8 23 8.4 102020 59
2011-02-24 07:59:42 51°13.662 2°55.961 1.8 75 8.4 102020 59
2011-02-24 07:59:47 51°13.662 2°55.961 3 42 8.4 102020 59
2011-02-24 07:59:52 51°13.662 2°55.961 1.5 38 8.4 102020 59
2011-02-24 07:59:57 51°13.662 2°55.961 2.1 22 8.4 102020 59
2011-02-24 08:00:02 51°13.662 2°55.961 1.3 77 8.4 102020 59
2011-02-24 08:00:07 51°13.662 2°55.961 1.5 42 8.4 102020 60
2011-02-24 08:00:12 51°13.662 2°55.961 1.2 73 8.4 102020 60
2011-02-24 08:00:17 51°13.662 2°55.961 0.8 21 8.4 102020 58
2011-02-24 08:00:22 51°13.662 2°55.961 3 77 8.4 102020 58
2011-02-24 08:00:27 51°13.662 2°55.961 2.9 20 8.4 102020 58
2011-02-24 08:00:32 51°13.662 2°55.961 4.2 75 8.4 102020 58
2011-02-24 08:00:37 51°13.662 2°55.961 5.1 24 8.4 102010 58
2011-02-24 08:00:41 51°13.662 2°55.961 4.3 76 8.4 102010 58
2011-02-24 08:00:46 51°13.662 2°55.961 3.9 42 8.4 102020 59
2011-02-24 08:00:51 51°13.662 2°55.961 3.3 40 8.4 102020 59
2011-02-24 08:00:56 51°13.662 2°55.961 2.7 20 8.4 102020 59
2011-02-24 08:01:01 51°13.662 2°55.961 3.2 73 8.4 102020 59
2011-02-24 08:01:06 51°13.662 2°55.961 3.2 22 8.4 102010 59
2011-02-24 08:01:12 51°13.662 2°55.961 2.8 56 8.4 102010 59
2011-02-24 08:01:17 51°13.662 2°55.961 3.1 22 8.4 102020 58
2011-02-24 08:01:22 51°13.662 2°55.961 3.1 75 8.4 102020 58
2011-02-24 08:01:26 51°13.662 2°55.961 2.2 21 8.4 102020 58
2011-02-24 08:01:32 51°13.662 2°55.961 4.1 49 8.4 102020 58
2011-02-24 08:01:37 51°13.662 2°55.961 4.1 43 8.4 102020 59
2011-02-24 08:01:42 51°13.662 2°55.961 3.3 75 8.4 102020 59
2011-02-24 08:01:46 51°13.662 2°55.961 0.6 43 8.4 102020 58
2011-02-24 08:01:51 51°13.662 2°55.961 1.8 81 8.4 102020 58
2011-02-24 08:01:56 51°13.662 2°55.961 5.1 38 8.4 102020 59
2011-02-24 08:02:02 51°13.662 2°55.961 3.6 75 8.4 102020 59
2011-02-24 08:02:07 51°13.662 2°55.961 3.6 44 8.4 102020 58
2011-02-24 08:02:12 51°13.663 2°55.96 3.3 80 8.4 102020 58
2011-02-24 08:02:17 51°13.662 2°55.96 2.9 37 8.4 102020 58
2011-02-24 08:02:22 51°13.662 2°55.96 2 76 8.4 102020 58
2011-02-24 08:02:27 51°13.662 2°55.96 3.5 22 8.4 102020 59
2011-02-24 08:02:32 51°13.662 2°55.96 4.2 75 8.4 102020 59
2011-02-24 08:02:37 51°13.662 2°55.96 4.1 20 8.4 102020 58
2011-02-24 08:02:42 51°13.662 2°55.96 4.7 77 8.4 102020 58
2011-02-24 08:02:47 51°13.662 2°55.961 3 27 8.4 102020 59
2011-02-24 08:02:52 51°13.662 2°55.961 4.7 81 8.4 102020 59
2011-02-24 08:02:57 51°13.662 2°55.961 2.9 24 8.4 102030 58
2011-02-24 08:03:02 51°13.662 2°55.961 4.3 79 8.4 102030 58
2011-02-24 08:03:07 51°13.662 2°55.961 4 27 8.4 102030 59
2011-02-24 08:03:12 51°13.662 2°55.961 3.7 78 8.4 102030 59
2011-02-24 08:03:17 51°13.662 2°55.961 4.6 26 8.4 102030 57
2011-02-24 08:03:22 51°13.662 2°55.961 4.7 44 8.4 102030 57
2011-02-24 08:03:27 51°13.662 2°55.961 3.6 19 8.4 102030 60
2011-02-24 08:03:31 51°13.662 2°55.961 5.3 50 8.4 102030 60
2011-02-24 08:03:37 51°13.662 2°55.961 1.4 20 8.4 102030 58
2011-02-24 08:03:42 51°13.662 2°55.961 1.6 75 8.4 102030 58
2011-02-24 08:03:47 51°13.662 2°55.961 4.1 22 8.4 102030 58
2011-02-24 08:03:52 51°13.662 2°55.961 3 75 8.4 102030 58
2011-02-24 08:03:56 51°13.662 2°55.961 2.6 26 8.4 102030 58
2011-02-24 08:04:01 51°13.662 2°55.961 3 77 8.4 102030 58
2011-02-24 08:04:06 51°13.662 2°55.961 4.5 28 8.4 102030 58
2011-02-24 08:04:11 51°13.662 2°55.961 3 75 8.4 102030 58
2011-02-24 08:04:17 51°13.662 2°55.96 3.2 19 8.4 102030 58
2011-02-24 08:04:22 51°13.662 2°55.96 1 43 8.4 102030 58
2011-02-24 08:04:27 51°13.662 2°55.961 2.6 26 8.4 102030 58
2011-02-24 08:04:32 51°13.662 2°55.961 3.9 80 8.4 102030 58
2011-02-24 08:04:36 51°13.662 2°55.961 5.2 26 8.4 102030 59
2011-02-24 08:04:42 51°13.662 2°55.961 4.8 74 8.4 102030 59
2011-02-24 08:04:47 51°13.662 2°55.961 4.9 22 8.4 102030 58
2011-02-24 08:04:52 51°13.662 2°55.961 4.8 73 8.4 102030 58
2011-02-24 08:04:56 51°13.662 2°55.961 5.8 22 8.4 102040 58
2011-02-24 08:05:02 51°13.662 2°55.961 3.7 53 8.4 102040 58
2011-02-24 08:05:07 51°13.662 2°55.96 1.7 26 8.4 102030 57
2011-02-24 08:05:12 51°13.663 2°55.961 1.7 50 8.4 102030 57
2011-02-24 08:05:16 51°13.663 2°55.961 1.7 25 8.4 102030 59
2011-02-24 08:05:22 51°13.663 2°55.961 2 74 8.4 102030 59
2011-02-24 08:05:27 51°13.663 2°55.961 0.8 42 8.4 102040 58
2011-02-24 08:05:32 51°13.663 2°55.961 1.6 73 8.4 102040 58
2011-02-24 08:05:37 51°13.663 2°55.961 3.7 22 8.4 102030 58
2011-02-24 08:05:42 51°13.663 2°55.96 3.9 78 8.4 102030 58
2011-02-24 08:05:47 51°13.663 2°55.961 3.6 24 8.4 102030 58
2011-02-24 08:05:52 51°13.663 2°55.96 2.7 79 8.4 102030 58
2011-02-24 08:05:57 51°13.663 2°55.96 2.7 18 8.4 102040 57
2011-02-24 08:06:02 51°13.663 2°55.96 0.9 77 8.4 102040 57
2011-02-24 08:06:07 51°13.663 2°55.96 0.2 26 8.4 102030 58
2011-02-24 08:06:12 51°13.663 2°55.96 0.1 73 8.4 102030 58
2011-02-24 08:06:17 51°13.663 2°55.96 1.2 20 8.4 102040 59
2011-02-24 08:06:22 51°13.663 2°55.96 1.8 77 8.4 102040 59
2011-02-24 08:06:27 51°13.663 2°55.96 2.5 19 8.3 102040 58
2011-02-24 08:06:32 51°13.663 2°55.96 2.3 76 8.3 102040 58
2011-02-24 08:06:37 51°13.663 2°55.96 3.5 25 8.4 102040 58
2011-02-24 08:06:41 51°13.663 2°55.96 2.1 79 8.4 102040 58
2011-02-24 08:06:47 51°13.663 2°55.96 2.8 27 8.4 102040 60
2011-02-24 08:06:52 51°13.663 2°55.96 3.4 80 8.4 102040 60
2011-02-24 08:06:56 51°13.663 2°55.96 2.7 26 8.4 102040 58
2011-02-24 08:07:01 51°13.663 2°55.96 2.2 52 8.4 102040 58
2011-02-24 08:07:07 51°13.663 2°55.96 1.1 28 8.4 102040 59
2011-02-24 08:07:12 51°13.663 2°55.96 0.5 77 8.4 102040 59
2011-02-24 08:07:17 51°13.663 2°55.96 0.1 23 8.4 102040 57
2011-02-24 08:07:21 51°13.663 2°55.96 1 82 8.4 102040 57
2011-02-24 08:07:27 51°13.663 2°55.961 0.1 23 8.4 102040 58
2011-02-24 08:07:31 51°13.664 2°55.961 0.1 78 8.4 102040 58
2011-02-24 08:07:37 51°13.664 2°55.961 1.9 28 8.3 102040 58
2011-02-24 08:07:42 51°13.664 2°55.961 2.8 79 8.3 102040 58
2011-02-24 08:07:46 51°13.664 2°55.961 2.9 27 8.3 102040 58
2011-02-24 08:07:52 51°13.664 2°55.961 3.7 82 8.3 102040 58
2011-02-24 08:07:57 51°13.664 2°55.961 3.3 25 8.3 102040 60
2011-02-24 08:08:02 51°13.664 2°55.961 3 80 8.3 102040 60
2011-02-24 08:08:06 51°13.664 2°55.961 2.6 22 8.3 102040 59
2011-02-24 08:08:12 51°13.664 2°55.961 3.3 51 8.3 102040 59
2011-02-24 08:08:17 51°13.664 2°55.961 2.5 28 8.3 102040 58
2011-02-24 08:08:22 51°13.664 2°55.961 3.6 76 8.3 102040 58
2011-02-24 08:08:26 51°13.664 2°55.961 3.4 39 8.3 102040 59
2011-02-24 08:08:31 51°13.664 2°55.961 3 43 8.3 102040 59
2011-02-24 08:08:37 51°13.664 2°55.961 2.7 19 8.3 102040 57
2011-02-24 08:08:42 51°13.664 2°55.961 4.2 79 8.3 102040 57
2011-02-24 08:08:47 51°13.664 2°55.961 3.1 21 8.3 102040 59
2011-02-24 08:08:51 51°13.664 2°55.961 3.6 79 8.3 102040 59
2011-02-24 08:08:57 51°13.664 2°55.961 1.2 43 8.3 102040 58
2011-02-24 08:09:02 51°13.664 2°55.96 1 41 8.3 102040 58
2011-02-24 08:09:07 51°13.664 2°55.961 2 43 8.3 102040 57
2011-02-24 08:09:12 51°13.664 2°55.961 2.6 40 8.3 102040 57
2011-02-24 08:09:17 51°13.664 2°55.961 0.9 26 8.3 102040 58
2011-02-24 08:09:22 51°13.664 2°55.961 1.5 73 8.3 102040 58
2011-02-24 08:09:27 51°13.664 2°55.961 2.1 19 8.3 102040 58
2011-02-24 08:09:32 51°13.664 2°55.961 0.6 74 8.3 102040 58
2011-02-24 08:09:37 51°13.664 2°55.961 4.1 44 8.3 102040 58
2011-02-24 08:09:42 51°13.663 2°55.961 4 43 8.3 102040 58
2011-02-24 08:09:47 51°13.663 2°55.961 4 42 8.3 102040 58
2011-02-24 08:09:52 51°13.664 2°55.961 4 44 8.3 102040 58
2011-02-24 08:09:57 51°13.664 2°55.961 4.7 44 8.3 102040 57
2011-02-24 08:10:02 51°13.664 2°55.961 5 75 8.3 102040 57
2011-02-24 08:10:07 51°13.664 2°55.961 5 27 8.3 102040 59
2011-02-24 08:10:12 51°13.664 2°55.961 4.3 79 8.3 102040 59
2011-02-24 08:10:17 51°13.664 2°55.961 3.7 21 8.3 102040 58
2011-02-24 08:10:22 51°13.664 2°55.961 3.6 76 8.3 102040 58
2011-02-24 08:10:26 51°13.664 2°55.96 3.8 26 8.3 102040 58
2011-02-24 08:10:31 51°13.664 2°55.96 3 58 8.3 102040 58
2011-02-24 08:10:37 51°13.664 2°55.961 0.9 27 8.3 102040 57
2011-02-24 08:10:42 51°13.664 2°55.96 3.4 81 8.3 102040 57
2011-02-24 08:10:47 51°13.664 2°55.96 4.2 19 8.3 102040 58
2011-02-24 08:10:52 51°13.664 2°55.96 3.5 76 8.3 102040 58
2011-02-24 08:10:57 51°13.664 2°55.96 1.9 26 8.3 102040 57
2011-02-24 08:11:02 51°13.664 2°55.96 0.7 77 8.3 102040 57
2011-02-24 08:11:07 51°13.664 2°55.96 0.2 25 8.3 102040 59
2011-02-24 08:11:12 51°13.664 2°55.96 0.1 41 8.3 102040 59
2011-02-24 08:11:17 51°13.664 2°55.96 0.2 21 8.3 102040 58
2011-02-24 08:11:22 51°13.664 2°55.96 0.6 43 8.3 102040 58
2011-02-24 08:11:27 51°13.664 2°55.96 2.3 44 8.3 102040 58
2011-02-24 08:11:32 51°13.664 2°55.96 0.2 78 8.3 102040 58
2011-02-24 08:11:36 51°13.664 2°55.961 1.5 22 8.3 102040 58
2011-02-24 08:11:42 51°13.664 2°55.961 3.8 81 8.3 102040 58
2011-02-24 08:11:47 51°13.664 2°55.96 3.6 21 8.3 102040 58
2011-02-24 08:11:52 51°13.664 2°55.96 4.1 53 8.3 102040 58
2011-02-24 08:11:57 51°13.664 2°55.96 4.2 26 8.2 102040 58
2011-02-24 08:12:02 51°13.664 2°55.961 3.8 76 8.2 102040 58
2011-02-24 08:12:07 51°13.664 2°55.961 4.5 28 8.2 102040 58
2011-02-24 08:12:12 51°13.664 2°55.961 1.6 45 8.2 102040 58
2011-02-24 08:12:16 51°13.664 2°55.96 3.7 38 8.3 102040 58
2011-02-24 08:12:22 51°13.664 2°55.96 1.5 77 8.3 102040 58
2011-02-24 08:12:27 51°13.664 2°55.961 1.2 40 8.3 102040 59
2011-02-24 08:12:32 51°13.664 2°55.961 2.4 44 8.3 102040 59
2011-02-24 08:12:36 51°13.664 2°55.961 1.8 34 8.3 102040 59
2011-02-24 08:12:42 51°13.664 2°55.961 0.6 75 8.3 102040 59
2011-02-24 08:12:47 51°13.665 2°55.961 1.1 27 8.3 102040 57
2011-02-24 08:12:52 51°13.665 2°55.961 1.4 43 8.3 102040 57
2011-02-24 08:12:56 51°13.665 2°55.961 1.8 41 8.3 102030 58
2011-02-24 08:13:01 51°13.665 2°55.961 2.5 43 8.3 102030 58
2011-02-24 08:13:06 51°13.665 2°55.961 1.7 21 8.3 102040 57
2011-02-24 08:13:12 51°13.664 2°55.961 3.9 81 8.3 102040 57
2011-02-24 08:13:17 51°13.665 2°55.96 4.8 27 8.3 102040 59
2011-02-24 08:13:22 51°13.665 2°55.961 4.9 45 8.3 102040 59
2011-02-24 08:13:27 51°13.665 2°55.961 3.8 26 8.2 102040 58
2011-02-24 08:13:32 51°13.665 2°55.96 4.1 44 8.2 102040 58
2011-02-24 08:13:37 51°13.665 2°55.961 3.7 26 8.2 102040 58
2011-02-24 08:13:42 51°13.665 2°55.96 2.5 78 8.2 102040 58
2011-02-24 08:13:47 51°13.665 2°55.96 3.3 25 8.2 102040 58
2011-02-24 08:13:52 51°13.665 2°55.96 2.4 76 8.2 102040 58
2011-02-24 08:13:57 51°13.665 2°55.96 3.7 21 8.3 102040 57
2011-02-24 08:14:02 51°13.665 2°55.96 1 44 8.3 102040 57
2011-02-24 08:14:07 51°13.664 2°55.96 3.7 27 8.3 102030 60
2011-02-24 08:14:12 51°13.665 2°55.961 3.7 75 8.3 102030 60
2011-02-24 08:14:17 51°13.665 2°55.961 4.4 44 8.2 102030 58
2011-02-24 08:14:22 51°13.664 2°55.961 4.6 80 8.2 102030 58
2011-02-24 08:14:27 51°13.664 2°55.96 4.1 21 8.2 102030 58
2011-02-24 08:14:32 51°13.664 2°55.96 4 57 8.2 102030 58
2011-02-24 08:14:37 51°13.664 2°55.96 3.3 21 8.2 102040 57
2011-02-24 08:14:42 51°13.664 2°55.96 1.8 79 8.2 102040 57
2011-02-24 08:14:47 51°13.664 2°55.96 1.5 42 8.2 102040 58
2011-02-24 08:14:52 51°13.664 2°55.96 0.5 41 8.2 102040 58
2011-02-24 08:14:57 51°13.664 2°55.96 0.1 22 8.2 102040 57
2011-02-24 08:15:02 51°13.664 2°55.961 4.1 81 8.2 102040 57
2011-02-24 08:15:07 51°13.664 2°55.961 3.6 40 8.2 102030 58
2011-02-24 08:15:12 51°13.664 2°55.961 2.9 41 8.2 102030 58
2011-02-24 08:15:17 51°13.664 2°55.961 3.8 44 8.2 102030 58
2011-02-24 08:15:22 51°13.664 2°55.961 2.4 75 8.2 102030 58
2011-02-24 08:15:27 51°13.664 2°55.961 2.2 21 8.2 102030 59
2011-02-24 08:15:32 51°13.664 2°55.961 1.1 45 8.2 102030 59
2011-02-24 08:15:37 51°13.664 2°55.961 0.7 22 8.2 102040 57
2011-02-24 08:15:42 51°13.664 2°55.961 1.3 77 8.2 102040 57
2011-02-24 08:15:47 51°13.664 2°55.961 1.9 28 8.2 102030 57
2011-02-24 08:15:52 51°13.664 2°55.961 3.3 80 8.2 102030 57
2011-02-24 08:15:57 51°13.664 2°55.961 3.5 21 8.2 102030 57
2011-02-24 08:16:02 51°13.664 2°55.961 3.3 75 8.2 102030 57
2011-02-24 08:16:07 51°13.664 2°55.961 3.7 22 8.2 102040 59
2011-02-24 08:16:12 51°13.664 2°55.961 4.4 80 8.2 102040 59
2011-02-24 08:16:17 51°13.664 2°55.962 3.8 43 8.2 102030 59
2011-02-24 08:16:21 51°13.664 2°55.961 4.1 76 8.2 102030 59
2011-02-24 08:16:27 51°13.664 2°55.961 4.4 19 8.2 102030 59
2011-02-24 08:16:31 51°13.664 2°55.962 3.6 79 8.2 102030 59
2011-02-24 08:16:36 51°13.664 2°55.962 3.4 42 8.2 102030 60
2011-02-24 08:16:41 51°13.664 2°55.962 3.6 81 8.2 102030 60
2011-02-24 08:16:46 51°13.664 2°55.961 1.6 44 8.2 102030 57
2011-02-24 08:16:52 51°13.664 2°55.962 4.3 42 8.2 102030 57
2011-02-24 08:16:57 51°13.664 2°55.962 3.4 43 8.2 102030 57
2011-02-24 08:17:02 51°13.664 2°55.961 2.6 40 8.2 102030 57
2011-02-24 08:17:06 51°13.664 2°55.961 3.6 21 8.2 102040 59
2011-02-24 08:17:12 51°13.664 2°55.961 4.6 37 8.2 102040 59
2011-02-24 08:17:17 51°13.664 2°55.961 5.1 42 8.2 102030 58
2011-02-24 08:17:22 51°13.664 2°55.961 4.9 42 8.2 102030 58
2011-02-24 08:17:26 51°13.664 2°55.961 4.5 37 8.2 102030 59
2011-02-24 08:17:32 51°13.664 2°55.961 3.2 82 8.2 102030 59
2011-02-24 08:17:37 51°13.664 2°55.961 1.7 28 8.2 102030 59
2011-02-24 08:17:42 51°13.664 2°55.962 1.4 42 8.2 102030 59
2011-02-24 08:17:46 51°13.664 2°55.961 3.6 44 8.2 102030 57
2011-02-24 08:17:52 51°13.663 2°55.961 2.9 42 8.2 102030 57
2011-02-24 08:17:56 51°13.664 2°55.961 2.6 23 8.2 102030 58
2011-02-24 08:18:02 51°13.664 2°55.961 0.8 80 8.2 102030 58
2011-02-24 08:18:06 51°13.664 2°55.961 0.5 26 8.2 102040 58
2011-02-24 08:18:11 51°13.664 2°55.962 0.2 77 8.2 102040 58
2011-02-24 08:18:17 51°13.664 2°55.962 1.8 27 8.2 102030 58
2011-02-24 08:18:22 51°13.664 2°55.962 2.3 44 8.2 102030 58
2011-02-24 08:18:27 51°13.664 2°55.962 1 26 8.2 102030 58
2011-02-24 08:18:32 51°13.664 2°55.962 1.8 76 8.2 102030 58
2011-02-24 08:18:37 51°13.664 2°55.962 1.5 21 8.2 102040 58
2011-02-24 08:18:42 51°13.664 2°55.962 2.9 79 8.2 102040 58
2011-02-24 08:18:47 51°13.664 2°55.962 2.7 25 8.2 102040 58
2011-02-24 08:18:52 51°13.664 2°55.962 3.2 39 8.2 102040 58
2011-02-24 08:18:57 51°13.664 2°55.962 3.2 21 8.2 102040 58
2011-02-24 08:19:02 51°13.664 2°55.962 3.7 77 8.2 102040 58
2011-02-24 08:19:07 51°13.664 2°55.962 3.1 20 8.2 102040 59
2011-02-24 08:19:12 51°13.664 2°55.962 0.7 72 8.2 102040 59
2011-02-24 08:19:17 51°13.664 2°55.962 2.6 22 8.2 102030 58
2011-02-24 08:19:22 51°13.664 2°55.962 2 39 8.2 102030 58
2011-02-24 08:19:27 51°13.664 2°55.962 2 38 8.2 102040 58
2011-02-24 08:19:32 51°13.664 2°55.961 0.4 56 8.2 102040 58